Regional Weather Roundup
Issued by NWS

Home | Current Version | Previous Version | Text Only | Print | Product List | Glossary Off
Versions: 1 2 3 4 5 6 7 8 9 10 11 12 13 14 15 16 17 18 19 20 21 22 23 24 25 26 27 28 29 30 31 32 33 34 35 36 37 38 39 40 41 42 43 44 45 46 47 48 49 50

000
ASUS43 KIND 270059
RWRIN

WEATHER ROUNDUP FOR INDIANA
NATIONAL WEATHER SERVICE INDIANAPOLIS IN
900 PM EDT FRI AUG 26 2016

NOTE: "FAIR" INDICATES FEW OR NO CLOUDS BELOW 12,000 FEET WITH NO
SIGNIFICANT WEATHER AND/OR OBSTRUCTIONS TO VISIBILITY.

* - STATION DOES NOT REPORT WEATHER SUCH AS PRECIPITATION OR FOG.

+ - STATION NOT QUALITY CONTROLLED BY THE NATIONAL WEATHER SERVICE.
    USE DATA WITH CAUTION...ESPECIALLY DEWPOINT AND RELATIVE
    HUMIDITY OBSERVATIONS.

INZ001>003-010>013-019-020-270200-
NORTHWEST INDIANA

CITY           SKY/WX    TMP DP  RH WIND       PRES   REMARKS
GARY /AIRPORT/ MOCLDY    73  66  78 NE8       30.14R
KNOX *+        CLOUDY    72  52  49 N5        30.12R
MONTICELLO +   CLOUDY    75  69  79 E3        30.10S
RENSSELAER +   LGT RAIN  73  70  88 NE3       30.12R

$$

LMZ046-743>745-270200-
SOUTHERN LAKE MICHIGAN

STATION/POSITION TIME  TEMP    WIND        PRES    WAVE
                       AIR SEA DIR/SP/G            HT
                 (UTC) (F)     (DEG/KT/KT) (MB)    (FT)
BURNS HARBOR     0002   73      60/ 14/ 16 1020.0S
MICHIGAN CITY    0000   73      20/ 13/ 15   N/A
5NW MICH CITY    0000   74 75   50/ 12/ 14   N/A     2

$$

INZ004-005-014>016-021>024-270200-
NORTH CENTRAL INDIANA

CITY           SKY/WX    TMP DP  RH WIND       PRES   REMARKS
ELKHART        CLOUDY    75  66  73 CALM      30.14R
GOSHEN         CLOUDY    76  66  71 CALM      30.13R
SOUTH BEND     MOCLDY    73  66  78 N7        30.14R

$$

INZ006>009-017-018-025>027-270200-
NORTHEAST INDIANA

CITY           SKY/WX    TMP DP  RH WIND       PRES   REMARKS
ANGOLA *+      CLEAR     73  64  73 CALM      30.14R
FORT WAYNE     CLOUDY    77  66  68 E3        30.13R

$$

INZ028-029-035-036-043>045-051>053-270200-
WEST CENTRAL INDIANA

CITY           SKY/WX    TMP DP  RH WIND       PRES   REMARKS
CRAWFORDSVL +  PTCLDY    71  71 100 CALM      30.11F
GREENCASTLE +  PTCLDY    72  72 100 CALM      30.11S
LAFAYETTE      CLOUDY    74  74 100 W3        30.11R
TERRE HAUTE    CLOUDY    75  71  87 NE5       30.09R

$$

INZ030>032-037>040-046>048-054>057-064-065-270200-
CENTRAL INDIANA

CITY           SKY/WX    TMP DP  RH WIND       PRES   REMARKS
COLUMBUS       CLEAR     72  72 100 CALM      30.11S
INDIANAPOLIS   CLOUDY    73  70  90 CALM      30.10R
-EAGLE CREEK   CLOUDY    74  70  87 NW5       30.10S
KOKOMO *+      CLOUDY    75  72  88 E3        30.11F
MT COMFORT *+  CLOUDY    70  68  94 NW6       30.11R
SHELBYVILLE    PTCLDY    73  67  81 VRB3      30.09F

$$

INZ033-034-041-042-049-050-058-059-270200-
EAST CENTRAL INDIANA

CITY           SKY/WX    TMP DP  RH WIND       PRES   REMARKS
MUNCIE         LGT RAIN  78  74  87 NE5       30.13R

$$

INZ060-061-067>069-081>083-085>088-270200-
SOUTHWEST INDIANA

CITY           SKY/WX    TMP DP  RH WIND       PRES   REMARKS
EVANSVILLE     PTCLDY    80  73  79 N7        30.07R
HUNTINGBURG *+ MOCLDY    81  73  78 CALM      30.08R

$$

INZ062-063-066-070>080-084-089>092-270200-
SOUTH CENTRAL AND SOUTHEAST INDIANA

CITY           SKY/WX    TMP DP  RH WIND       PRES   REMARKS
BLOOMINGTON    CLOUDY    76  69  79 SE3       30.11R
MADISON *+     CLEAR     77  73  88 NE3       30.12S

$$





USA.gov is the U.S. government's official web portal to all federal, state and local government web resources and services.